Time,TemperatureF,DewpointF,PressureIn,WindDirection,WindDirectionDegrees,WindSpeedMPH,WindSpeedGustMPH,Humidity,HourlyPrecipIn,Conditions,Clouds,dailyrainin,SoftwareType,DateUTC
2013-05-08 00:02:00,60.0,55.0,-100.00,WSW,255,1.0,8.0,88,0.00,,,-99.99,,2013-05-08 04:02:00,
2013-05-08 00:13:00,60.0,55.0,-100.00,NW,324,0.0,8.0,88,0.00,,,-99.99,,2013-05-08 04:13:00,
2013-05-08 00:23:00,59.0,55.0,-100.00,WSW,244,0.0,8.0,88,0.00,,,-99.99,,2013-05-08 04:23:00,
2013-05-08 00:33:00,59.0,55.0,-100.00,West,266,1.0,1.0,88,0.00,,,-99.99,,2013-05-08 04:33:00,
2013-05-08 00:43:00,59.0,54.0,-100.00,South,186,0.0,1.0,88,0.00,,,-99.99,,2013-05-08 04:43:00,
2013-05-08 00:52:00,59.0,55.0,-100.00,WNW,300,1.0,1.0,88,0.00,,,-99.99,,2013-05-08 04:52:00,
2013-05-08 01:02:00,60.0,55.0,-100.00,SW,231,0.0,1.0,88,0.00,,,-99.99,,2013-05-08 05:02:00,
2013-05-08 01:12:00,59.0,54.0,-100.00,WSW,254,0.0,1.0,86,0.00,,,-99.99,,2013-05-08 05:12:00,
2013-05-08 01:22:00,60.0,55.0,-100.00,ENE,63,0.0,1.0,88,0.00,,,-99.99,,2013-05-08 05:22:00,
2013-05-08 01:32:00,59.0,54.0,-100.00,SW,234,0.0,1.0,86,0.00,,,-99.99,,2013-05-08 05:32:00,
2013-05-08 01:42:00,59.0,54.0,-100.00,WSW,254,0.0,1.0,86,0.00,,,-99.99,,2013-05-08 05:42:00,
2013-05-08 01:52:00,58.0,54.0,-100.00,South,169,1.0,1.0,89,0.00,,,-99.99,,2013-05-08 05:52:00,
2013-05-08 02:02:00,58.0,54.0,-100.00,WSW,242,1.0,1.0,88,0.00,,,-99.99,,2013-05-08 06:02:00,
2013-05-08 02:12:00,58.0,54.0,-100.00,WSW,249,1.0,1.0,88,0.00,,,-99.99,,2013-05-08 06:12:00,
2013-05-08 02:22:00,59.0,54.0,-100.00,SW,228,0.0,1.0,88,0.00,,,-99.99,,2013-05-08 06:22:00,
2013-05-08 02:32:00,58.0,54.0,-100.00,WSW,251,0.0,1.0,86,0.00,,,-99.99,,2013-05-08 06:32:00,
2013-05-08 02:42:00,58.0,52.0,-100.00,WSW,251,0.0,1.0,86,0.00,,,-99.99,,2013-05-08 06:42:00,
2013-05-08 02:52:00,58.0,54.0,-100.00,WSW,237,0.0,1.0,86,0.00,,,-99.99,,2013-05-08 06:52:00,
2013-05-08 03:02:00,58.0,54.0,-100.00,WSW,255,0.0,1.0,86,0.00,,,-99.99,,2013-05-08 07:02:00,
2013-05-08 03:11:00,58.0,52.0,-100.00,South,173,0.0,1.0,86,0.00,,,-99.99,,2013-05-08 07:11:00,
2013-05-08 03:22:00,58.0,54.0,-100.00,WSW,238,0.0,1.0,88,0.00,,,-99.99,,2013-05-08 07:22:00,
2013-05-08 03:32:00,58.0,54.0,-100.00,SSW,194,0.0,1.0,88,0.00,,,-99.99,,2013-05-08 07:32:00,
2013-05-08 03:42:00,58.0,54.0,-100.00,West,261,0.0,1.0,88,0.00,,,-99.99,,2013-05-08 07:42:00,
2013-05-08 03:52:00,58.0,54.0,-100.00,North,351,0.0,1.0,88,0.00,,,-99.99,,2013-05-08 07:52:00,
2013-05-08 04:02:00,58.0,52.0,-100.00,North,358,0.0,1.0,86,0.00,,,-99.99,,2013-05-08 08:02:00,
2013-05-08 04:12:00,57.0,52.0,-100.00,WSW,242,0.0,1.0,86,0.00,,,-99.99,,2013-05-08 08:12:00,
2013-05-08 04:22:00,56.0,52.0,-100.00,WSW,251,0.0,1.0,88,0.00,,,-99.99,,2013-05-08 08:22:00,
2013-05-08 04:32:00,57.0,52.0,-100.00,SSW,201,0.0,1.0,88,0.00,,,-99.99,,2013-05-08 08:32:00,
2013-05-08 04:42:00,56.0,52.0,-100.00,SSW,213,0.0,1.0,88,0.00,,,-99.99,,2013-05-08 08:42:00,
2013-05-08 04:52:00,56.0,52.0,-100.00,SW,235,0.0,1.0,88,0.00,,,-99.99,,2013-05-08 08:52:00,
2013-05-08 05:02:00,56.0,52.0,-100.00,NE,52,0.0,1.0,88,0.00,,,-99.99,,2013-05-08 09:02:00,
2013-05-08 05:11:00,57.0,52.0,-100.00,ENE,69,0.0,1.0,88,0.00,,,-99.99,,2013-05-08 09:11:00,
2013-05-08 05:21:00,57.0,54.0,-100.00,West,259,1.0,1.0,89,0.00,,,-99.99,,2013-05-08 09:21:00,
2013-05-08 05:32:00,55.0,50.0,-100.00,SSW,204,0.0,1.0,88,0.00,,,-99.99,,2013-05-08 09:32:00,
2013-05-08 05:42:00,56.0,52.0,-100.00,SW,227,0.0,1.0,89,0.00,,,-99.99,,2013-05-08 09:42:00,
2013-05-08 05:53:00,56.0,52.0,-100.00,WSW,252,0.0,1.0,89,0.00,,,-99.99,,2013-05-08 09:53:00,
2013-05-08 06:02:00,56.0,52.0,-100.00,ESE,112,0.0,1.0,88,0.00,,,-99.99,,2013-05-08 10:02:00,
2013-05-08 06:12:00,55.0,50.0,-100.00,West,280,0.0,1.0,88,0.00,,,-99.99,,2013-05-08 10:12:00,
2013-05-08 06:23:00,56.0,52.0,-100.00,NE,45,1.0,1.0,89,0.00,,,-99.99,,2013-05-08 10:23:00,
2013-05-08 06:33:00,56.0,52.0,-100.00,West,273,0.0,1.0,89,0.00,,,-99.99,,2013-05-08 10:33:00,
2013-05-08 06:42:00,57.0,52.0,-100.00,WSW,258,1.0,1.0,89,0.00,,,-99.99,,2013-05-08 10:42:00,
2013-05-08 06:52:00,55.0,52.0,-100.00,ENE,64,1.0,1.0,89,0.00,,,-99.99,,2013-05-08 10:52:00,
2013-05-08 07:02:00,56.0,52.0,-100.00,WSW,244,1.0,1.0,89,0.00,,,-99.99,,2013-05-08 11:02:00,
2013-05-08 07:11:00,56.0,52.0,-100.00,SSW,197,0.0,1.0,88,0.00,,,-99.99,,2013-05-08 11:11:00,
2013-05-08 07:22:00,56.0,52.0,-100.00,West,271,1.0,2.0,88,0.00,,,-99.99,,2013-05-08 11:22:00,
2013-05-08 07:32:00,56.0,52.0,-100.00,SW,235,1.0,2.0,88,0.00,,,-99.99,,2013-05-08 11:32:00,
2013-05-08 07:42:00,56.0,52.0,-100.00,West,264,1.0,2.0,89,0.00,,,-99.99,,2013-05-08 11:42:00,
2013-05-08 07:52:00,58.0,54.0,-100.00,WSW,255,1.0,2.0,88,0.00,,,-99.99,,2013-05-08 11:52:00,
2013-05-08 08:02:00,59.0,54.0,-100.00,ENE,66,1.0,2.0,85,0.00,,,-99.99,,2013-05-08 12:02:00,
2013-05-08 08:11:00,58.0,52.0,-100.00,West,278,1.0,2.0,84,0.00,,,-99.99,,2013-05-08 12:11:00,
2013-05-08 08:22:00,58.0,52.0,-100.00,SE,142,0.0,2.0,82,0.00,,,-99.99,,2013-05-08 12:22:00,
2013-05-08 08:32:00,60.0,54.0,-100.00,WSW,251,0.0,2.0,81,0.00,,,-99.99,,2013-05-08 12:32:00,
2013-05-08 08:42:00,60.0,52.0,-100.00,SSE,156,0.0,2.0,78,0.00,,,-99.99,,2013-05-08 12:42:00,
2013-05-08 08:52:00,61.0,52.0,-100.00,ESE,111,1.0,2.0,75,0.00,,,-99.99,,2013-05-08 12:52:00,
2013-05-08 09:01:00,63.0,54.0,-100.00,East,88,2.0,2.0,72,0.00,,,-99.99,,2013-05-08 13:01:00,
2013-05-08 09:12:00,64.0,52.0,-100.00,ESE,107,2.0,2.0,68,0.00,,,-99.99,,2013-05-08 13:12:00,
2013-05-08 09:21:00,64.0,52.0,-100.00,East,86,2.0,2.0,69,0.00,,,-99.99,,2013-05-08 13:21:00,
2013-05-08 09:32:00,65.0,54.0,-100.00,SE,132,2.0,2.0,68,0.00,,,-99.99,,2013-05-08 13:32:00,
2013-05-08 09:42:00,65.0,54.0,-100.00,South,172,1.0,2.0,69,0.00,,,-99.99,,2013-05-08 13:42:00,
2013-05-08 09:52:00,65.0,54.0,-100.00,SE,141,2.0,4.0,71,0.00,,,-99.99,,2013-05-08 13:52:00,
2013-05-08 10:02:00,65.0,54.0,-100.00,SSW,204,2.0,4.0,71,0.00,,,-99.99,,2013-05-08 14:02:00,
2013-05-08 10:11:00,65.0,54.0,-100.00,SE,135,2.0,4.0,69,0.00,,,-99.99,,2013-05-08 14:11:00,
2013-05-08 10:22:00,67.0,54.0,-100.00,South,170,4.0,4.0,66,0.00,,,-99.99,,2013-05-08 14:22:00,
2013-05-08 10:32:00,68.0,54.0,-100.00,SSW,193,2.0,4.0,62,0.00,,,-99.99,,2013-05-08 14:32:00,
2013-05-08 10:42:00,68.0,54.0,-100.00,East,93,3.0,4.0,62,0.00,,,-99.99,,2013-05-08 14:42:00,
2013-05-08 10:52:00,69.0,54.0,-100.00,South,182,3.0,4.0,59,0.00,,,-99.99,,2013-05-08 14:52:00,
2013-05-08 11:02:00,68.0,54.0,-100.00,SSE,149,3.0,4.0,63,0.00,,,-99.99,,2013-05-08 15:02:00,
2013-05-08 11:11:00,68.0,54.0,-100.00,East,88,2.0,4.0,62,0.00,,,-99.99,,2013-05-08 15:11:00,
2013-05-08 11:22:00,68.0,52.0,-100.00,SSE,160,2.0,4.0,59,0.00,,,-99.99,,2013-05-08 15:22:00,
2013-05-08 11:33:00,68.0,52.0,-100.00,SSE,163,2.0,4.0,59,0.00,,,-99.99,,2013-05-08 15:33:00,
2013-05-08 11:42:00,70.0,54.0,-100.00,SSE,162,2.0,4.0,58,0.00,,,-99.99,,2013-05-08 15:42:00,
2013-05-08 11:52:00,70.0,54.0,-100.00,SSE,153,2.0,4.0,58,0.00,,,-99.99,,2013-05-08 15:52:00,
2013-05-08 12:03:00,70.0,52.0,-100.00,East,93,2.0,4.0,56,0.00,,,-99.99,,2013-05-08 16:03:00,
2013-05-08 12:12:00,70.0,52.0,-100.00,South,183,2.0,4.0,56,0.00,,,-99.99,,2013-05-08 16:12:00,
2013-05-08 12:23:00,70.0,52.0,-100.00,South,175,2.0,4.0,55,0.00,,,-99.99,,2013-05-08 16:23:00,
2013-05-08 12:33:00,71.0,52.0,-100.00,SSE,160,2.0,4.0,53,0.00,,,-99.99,,2013-05-08 16:33:00,
2013-05-08 12:42:00,73.0,52.0,-100.00,ENE,59,2.0,4.0,49,0.00,,,-99.99,,2013-05-08 16:42:00,
2013-05-08 12:52:00,73.0,52.0,-100.00,ENE,59,2.0,4.0,49,0.00,,,-99.99,,2013-05-08 16:52:00,
2013-05-08 13:02:00,73.0,52.0,-100.00,ESE,110,2.0,4.0,50,0.00,,,-99.99,,2013-05-08 17:02:00,
2013-05-08 13:12:00,72.0,52.0,-100.00,SSW,203,3.0,6.0,50,0.00,,,-99.99,,2013-05-08 17:12:00,
2013-05-08 13:22:00,73.0,50.0,-100.00,East,80,1.0,6.0,46,0.00,,,-99.99,,2013-05-08 17:22:00,
2013-05-08 13:32:00,74.0,52.0,-100.00,ENE,69,1.0,6.0,49,0.00,,,-99.99,,2013-05-08 17:32:00,
2013-05-08 13:41:00,74.0,52.0,-100.00,ENE,69,1.0,6.0,49,0.00,,,-99.99,,2013-05-08 17:41:00,
2013-05-08 13:52:00,71.0,52.0,-100.00,WNW,302,2.0,6.0,54,0.00,,,-99.99,,2013-05-08 17:52:00,
2013-05-08 14:02:00,70.0,52.0,-100.00,NE,39,3.0,6.0,56,0.00,,,-99.99,,2013-05-08 18:02:00,
2013-05-08 14:12:00,71.0,54.0,-100.00,NNE,22,2.0,6.0,55,0.00,,,-99.99,,2013-05-08 18:12:00,
2013-05-08 14:21:00,70.0,54.0,-100.00,NE,46,3.0,6.0,58,0.00,,,-99.99,,2013-05-08 18:21:00,
2013-05-08 14:32:00,71.0,55.0,-100.00,North,354,4.0,6.0,59,0.00,,,-99.99,,2013-05-08 18:32:00,
2013-05-08 14:42:00,73.0,54.0,-100.00,ENE,73,2.0,6.0,51,0.00,,,-99.99,,2013-05-08 18:42:00,
2013-05-08 14:52:00,72.0,54.0,-100.00,NE,38,4.0,6.0,54,0.00,,,-99.99,,2013-05-08 18:52:00,
2013-05-08 15:01:00,69.0,54.0,-100.00,ENE,57,4.0,6.0,59,0.00,,,-99.99,,2013-05-08 19:01:00,
2013-05-08 15:11:00,69.0,54.0,-100.00,NE,50,4.0,6.0,59,0.00,,,-99.99,,2013-05-08 19:11:00,
2013-05-08 15:22:00,68.0,52.0,-100.00,ENE,76,3.0,6.0,60,0.00,,,-99.99,,2013-05-08 19:22:00,
2013-05-08 15:32:00,68.0,54.0,-100.00,ENE,74,2.0,6.0,60,0.00,,,-99.99,,2013-05-08 19:32:00,
2013-05-08 15:42:00,69.0,54.0,-100.00,ENE,57,2.0,6.0,59,0.00,,,-99.99,,2013-05-08 19:42:00,
2013-05-08 15:52:00,70.0,52.0,-100.00,ENE,57,2.0,6.0,56,0.00,,,-99.99,,2013-05-08 19:52:00,
2013-05-08 16:02:00,71.0,54.0,-100.00,East,93,2.0,6.0,56,0.00,,,-99.99,,2013-05-08 20:02:00,
2013-05-08 16:11:00,70.0,54.0,-100.00,NE,48,2.0,6.0,56,0.00,,,-99.99,,2013-05-08 20:11:00,
2013-05-08 16:22:00,70.0,54.0,-100.00,East,83,1.0,6.0,58,0.00,,,-99.99,,2013-05-08 20:22:00,
2013-05-08 16:32:00,68.0,52.0,-100.00,NNE,28,2.0,6.0,58,0.00,,,-99.99,,2013-05-08 20:32:00,
2013-05-08 16:42:00,69.0,54.0,-100.00,East,80,2.0,6.0,59,0.00,,,-99.99,,2013-05-08 20:42:00,
2013-05-08 16:52:00,69.0,52.0,-100.00,NE,55,3.0,6.0,55,0.00,,,-99.99,,2013-05-08 20:52:00,
2013-05-08 17:01:00,69.0,52.0,-100.00,East,83,2.0,6.0,56,0.00,,,-99.99,,2013-05-08 21:01:00,
2013-05-08 17:12:00,71.0,52.0,-100.00,SE,124,2.0,6.0,54,0.00,,,-99.99,,2013-05-08 21:12:00,
2013-05-08 17:21:00,70.0,52.0,-100.00,ESE,111,2.0,6.0,56,0.00,,,-99.99,,2013-05-08 21:21:00,
2013-05-08 17:33:00,70.0,52.0,-100.00,East,100,2.0,6.0,55,0.00,,,-99.99,,2013-05-08 21:33:00,
2013-05-08 17:43:00,69.0,52.0,-100.00,NE,42,2.0,6.0,56,0.00,,,-99.99,,2013-05-08 21:43:00,
2013-05-08 17:52:00,69.0,52.0,-100.00,NNE,33,2.0,6.0,58,0.00,,,-99.99,,2013-05-08 21:52:00,
2013-05-08 18:03:00,69.0,54.0,-100.00,NE,35,1.0,6.0,58,0.00,,,-99.99,,2013-05-08 22:03:00,
2013-05-08 18:12:00,69.0,54.0,-100.00,NE,46,2.0,6.0,59,0.00,,,-99.99,,2013-05-08 22:12:00,
2013-05-08 18:22:00,68.0,52.0,-100.00,NE,43,2.0,6.0,58,0.00,,,-99.99,,2013-05-08 22:22:00,
2013-05-08 18:33:00,67.0,52.0,-100.00,NNW,334,2.0,6.0,59,0.00,,,-99.99,,2013-05-08 22:33:00,
2013-05-08 18:42:00,66.0,52.0,-100.00,NNE,32,2.0,6.0,62,0.00,,,-99.99,,2013-05-08 22:42:00,
2013-05-08 18:52:00,66.0,52.0,-100.00,NE,45,2.0,6.0,62,0.00,,,-99.99,,2013-05-08 22:52:00,
2013-05-08 19:02:00,66.0,52.0,-100.00,NNE,28,2.0,6.0,62,0.00,,,-99.99,,2013-05-08 23:02:00,
2013-05-08 19:12:00,65.0,50.0,-100.00,NNE,21,2.0,6.0,60,0.00,,,-99.99,,2013-05-08 23:12:00,
2013-05-08 19:22:00,66.0,52.0,-100.00,ENE,60,1.0,6.0,63,0.00,,,-99.99,,2013-05-08 23:22:00,
2013-05-08 19:32:00,67.0,52.0,-100.00,ENE,76,1.0,6.0,63,0.00,,,-99.99,,2013-05-08 23:32:00,
2013-05-08 19:42:00,66.0,52.0,-100.00,NE,43,1.0,6.0,63,0.00,,,-99.99,,2013-05-08 23:42:00,
2013-05-08 19:52:00,65.0,52.0,-100.00,East,93,1.0,6.0,67,1.14,,,-99.99,,2013-05-08 23:52:00,
2013-05-08 20:02:00,64.0,54.0,-100.00,NNE,28,1.0,6.0,69,0.00,,,-99.99,,2013-05-09 00:02:00,
2013-05-08 20:12:00,64.0,54.0,-100.00,East,79,1.0,6.0,71,0.00,,,-99.99,,2013-05-09 00:12:00,
2013-05-08 20:21:00,63.0,54.0,-100.00,ENE,57,1.0,6.0,73,6.22,,,-99.99,,2013-05-09 00:21:00,
2013-05-08 20:32:00,62.0,54.0,-100.00,WNW,290,0.0,6.0,78,2.83,,,-99.99,,2013-05-09 00:32:00,
2013-05-08 20:42:00,62.0,55.0,-100.00,NE,56,1.0,6.0,81,4.53,,,-99.99,,2013-05-09 00:42:00,
2013-05-08 20:52:00,61.0,55.0,-100.00,NE,39,0.0,6.0,82,24.96,,,-99.99,,2013-05-09 00:52:00,
2013-05-08 21:01:00,60.0,55.0,-100.00,NNW,338,0.0,6.0,86,7.36,,,-99.99,,2013-05-09 01:01:00,
2013-05-08 21:12:00,60.0,55.0,-100.00,West,280,0.0,6.0,88,1.14,,,-99.99,,2013-05-09 01:12:00,
2013-05-08 21:22:00,60.0,55.0,-100.00,NW,317,0.0,6.0,89,6.22,,,-99.99,,2013-05-09 01:22:00,
2013-05-08 21:32:00,60.0,55.0,-100.00,West,271,1.0,6.0,89,4.53,,,-99.99,,2013-05-09 01:32:00,
2013-05-08 21:42:00,60.0,55.0,-100.00,NNW,338,0.0,6.0,89,0.00,,,-99.99,,2013-05-09 01:42:00,
2013-05-08 21:52:00,60.0,55.0,-100.00,ENE,70,0.0,6.0,90,0.00,,,-99.99,,2013-05-09 01:52:00,
2013-05-08 22:02:00,60.0,55.0,-100.00,NE,46,1.0,6.0,90,1.14,,,-99.99,,2013-05-09 02:02:00,
2013-05-08 22:12:00,59.0,55.0,-100.00,NE,50,0.0,6.0,91,4.53,,,-99.99,,2013-05-09 02:12:00,
2013-05-08 22:22:00,60.0,55.0,-100.00,West,268,1.0,6.0,91,0.00,,,-99.99,,2013-05-09 02:22:00,
2013-05-08 22:33:00,59.0,55.0,-100.00,NNE,28,0.0,6.0,91,1.14,,,-99.99,,2013-05-09 02:33:00,
2013-05-08 22:42:00,59.0,55.0,-100.00,NNE,28,0.0,6.0,91,1.14,,,-99.99,,2013-05-09 02:42:00,
2013-05-08 22:52:00,59.0,55.0,-100.00,NNE,28,0.0,6.0,91,1.14,,,-99.99,,2013-05-09 02:52:00,
2013-05-08 23:02:00,59.0,55.0,-100.00,West,273,1.0,6.0,90,0.00,,,-99.99,,2013-05-09 03:02:00,
2013-05-08 23:11:00,58.0,55.0,-100.00,NE,53,0.0,6.0,91,0.00,,,-99.99,,2013-05-09 03:11:00,
2013-05-08 23:21:00,59.0,55.0,-100.00,NNW,343,0.0,6.0,91,0.00,,,-99.99,,2013-05-09 03:21:00,
2013-05-08 23:33:00,58.0,55.0,-100.00,SW,230,1.0,6.0,91,0.00,,,-99.99,,2013-05-09 03:33:00,
2013-05-08 23:43:00,58.0,54.0,-100.00,SW,227,1.0,6.0,91,0.00,,,-99.99,,2013-05-09 03:43:00,
2013-05-08 23:53:00,59.0,55.0,-100.00,SSW,211,0.0,6.0,93,0.00,,,-99.99,,2013-05-09 03:53:00,